TimePDT,TemperatureF,Dew PointF,Humidity,Sea Level PressureIn,VisibilityMPH,Wind Direction,Wind SpeedMPH,Gust SpeedMPH,PrecipitationIn,Events,Conditions,WindDirDegrees,DateUTC
12:58 AM,50.2,11.5,21,29.95,10.0,WSW,10.4,-,N/A,,Clear,250,2013-03-18 07:58:00
1:58 AM,48.4,14.9,26,29.96,10.0,West,6.9,-,N/A,,Clear,270,2013-03-18 08:58:00
2:58 AM,49.8,8.1,18,29.96,10.0,West,8.1,-,N/A,,Clear,280,2013-03-18 09:58:00
3:58 AM,47.8,11.5,23,29.96,10.0,WSW,8.1,-,N/A,,Clear,250,2013-03-18 10:58:00
4:58 AM,49.8,9.1,19,29.98,10.0,WSW,8.1,-,N/A,,Clear,250,2013-03-18 11:58:00
5:58 AM,46.2,10.0,23,30.00,10.0,West,4.6,-,N/A,,Clear,270,2013-03-18 12:58:00
6:58 AM,45.3,12.0,26,30.03,10.0,WSW,3.5,-,N/A,,Clear,250,2013-03-18 13:58:00
7:58 AM,48.0,14.4,26,30.05,10.0,West,6.9,-,N/A,,Clear,260,2013-03-18 14:58:00
8:58 AM,55.9,13.1,18,30.07,10.0,Calm,Calm,-,N/A,,Clear,0,2013-03-18 15:58:00
9:58 AM,61.2,10.2,13,30.07,10.0,NNE,5.8,-,N/A,,Clear,20,2013-03-18 16:58:00
10:58 AM,64.0,7.5,11,30.08,10.0,WNW,2.3,-,N/A,,Clear,290,2013-03-18 17:58:00
11:58 AM,65.5,5.4,9,30.07,10.0,Variable,2.3,-,N/A,,Clear,0,2013-03-18 18:58:00
12:58 PM,68.2,3.7,8,30.05,10.0,Variable,2.3,-,N/A,,Clear,0,2013-03-18 19:58:00
1:58 PM,70.3,3.0,7,30.01,10.0,Calm,Calm,-,N/A,,Clear,0,2013-03-18 20:58:00
2:58 PM,70.9,1.2,6,29.98,10.0,Variable,5.8,-,N/A,,Partly Cloudy,0,2013-03-18 21:58:00
3:58 PM,72.5,1.9,6,29.96,10.0,Variable,5.8,-,N/A,,Clear,0,2013-03-18 22:58:00
4:58 PM,73.2,3.0,6,29.95,10.0,Variable,4.6,-,N/A,,Clear,0,2013-03-18 23:58:00
5:58 PM,70.3,4.3,8,29.94,10.0,West,9.2,-,N/A,,Clear,280,2013-03-19 00:58:00
6:58 PM,68.2,7.5,9,29.94,10.0,West,10.4,-,N/A,,Clear,270,2013-03-19 01:58:00
7:58 PM,64.6,11.1,12,29.95,10.0,West,8.1,-,N/A,,Clear,260,2013-03-19 02:58:00
8:58 PM,63.1,11.5,13,29.96,10.0,West,8.1,-,N/A,,Clear,270,2013-03-19 03:58:00
9:58 PM,61.5,16.5,17,29.96,10.0,ESE,3.5,-,N/A,,Partly Cloudy,110,2013-03-19 04:58:00
10:58 PM,60.6,17.1,18,29.96,10.0,South,4.6,-,N/A,,Mostly Cloudy,180,2013-03-19 05:58:00
11:58 PM,56.8,21.6,25,29.95,10.0,West,3.5,-,N/A,,Overcast,280,2013-03-19 06:58:00